Location: Newark
(27.5000°N, 79.4000°E)
Time: 05:48:38
(UTC+00:00)

ISS - Visible Passes

Search period start: 09 December 2019 00:00
Search period end: 19 December 2019 00:00
Orbit: 411 x 421 km, 51.6° (Epoch: 09 December)

Date Brightness Start Highest point End Pass type
(mag) Time Alt. Az. Time Alt. Az. Time Alt. Az.
09 Dec -0.9 13:39:19 10° NNW 13:39:28 11° NNW 13:39:28 11° NNW visible
10 Dec -2.7 12:51:13 10° NNW 12:54:05 26° NE 12:54:07 26° NE visible
11 Dec -2.3 13:39:12 10° WNW 13:42:17 35° SW 13:42:18 35° SW visible
12 Dec -3.7 12:50:32 10° NW 12:53:53 81° SW 12:57:14 10° SE visible
14 Dec -0.7 12:50:57 10° WNW 12:53:25 19° SW 12:55:53 10° S visible
